Other Surface Observations
Issued by NWS Tucson, AZ

Home | Current Version | Previous Version | Text Only | Print | Product List | Glossary On
Versions: 1 2 3 4 5 6 7 8 9 10 11 12 13 14 15 16 17 18 19 20 21 22 23 24 25 26 27 28 29 30 31 32 33 34 35 36 37 38 39 40 41 42 43 44 45 46 47 48 49 50
000
SXUS55 KTWC 030315
OSOTWC

WEATHER ROUNDUP FOR SOUTHEAST ARIZONA
NATIONAL WEATHER SERVICE TUCSON AZ
815 PM MST MON MAR 02 2015

AZZ504>506-514-030415-
LOCATION       SKY/WX    TMP DP  RH WIND       PRES   REMARKS
TUCSON         CLOUDY    52  48  86 NE6       30.02R
DAVIS-MONTHAN  CLOUDY    50  50  97 NE5       30.00F
CHILDRENS PARK N/A       51  48  91 N/A               PIMA CO DEQ
ALVERNON/22ND  N/A      N/A N/A N/A N/A               PIMA CO DEQ
CHERRY/GLENN   N/A      N/A N/A N/A N/A               PIMA CO DEQ
TANGERINE      N/A       50 N/A N/A NW4               PIMA CO DEQ
CONTL RANCH    N/A       52  50  93 N4                PIMA CO DEQ
GRANT/1ST      N/A       51  49  92 N5                PIMA CO DEQ
CRAYCROFT/22ND N/A      N/A N/A N/A N/A               PIMA CO DEQ
GOLFLINKS/KOLB N/A       51  49  93 NW6               PIMA CO DEQ
AJO/12TH       N/A       51  49  92 W3                PIMA CO DEQ
SAGUARO EAST   N/A      N/A N/A N/A N/A               PIMA CO DEQ
FAIRGROUNDS    N/A       48 N/A N/A NW7               PIMA CO DEQ
SAGUARO        N/A       51  42  71 NW7G25            *SABINO CYN
SAN CARLOS     N/A       47  45  91 CALM              *SAN CARLOS
GREEN VALLEY   N/A       51  45  81 SW14              PIMA CO DEQ
HORSE CAMP CYN N/A       42  40  94 W17G25            *ARAVAIPA CYN
RINCON MTNS    N/A       32  32  100 SW5G16           *NR MANNING CAMP
$$

AZZ509>511-030415-
LOCATION       SKY/WX    TMP DP  RH WIND       PRES   REMARKS
SAFFORD        LGT RAIN  48  43  82 NW21G28   29.98R
STRAY HORSE    N/A       32  31  95 W15G24            *
TRAIL CABIN    N/A       36  35  96 W8G15             *N OF GRANVILLE
BLACK HILLS    N/A       46  40  80 N16G24            *N OF FT THOMAS
DRY LAKE       N/A       31  31  99 NW5G13            *NATANES MTNS
NOON CREEK     N/A       45  44  96 NE8G19            *PINALENO MTNS
COLUMBINE      N/A       32  32  100 S9G20            *PINALENO MTNS
GUTHRIE        N/A       40  40  100 W20G50           *SW OF GUTHRIE
$$

AZZ502-503-513-030415-
LOCATION       SKY/WX    TMP DP  RH WIND       PRES   REMARKS
NOGALES        LGT RAIN  49  46  90 W7        30.00R
SELLS          N/A       52  46  81 SW4               *
SASABE         N/A       49  46  90 SW9G14            *ALTAR VLY
HOPKINS        N/A       40  40  100 W15G34           *SANTA RITA MTNS
CARR CYN       N/A       46  41  84 NE3G12            *W OF HEREFORD
$$

AZZ507-508-512-030415-
LOCATION       SKY/WX    TMP DP  RH WIND       PRES   REMARKS
SIERRA VISTA   LGT RAIN  50  46  87 SW10G20   29.99R
DOUGLAS        CLOUDY    56  43  61 S9        30.00R
EMPIRE MTNS    N/A       45  43  93 W4G13             *LAS CIENEGAS NCA
MULESHOE RANCH N/A       44  42  93 NW5G14            *PRESERVE
HEADQUARTERS   N/A       49  43  81 W3G19             *CHIRICAHUA MTNS
$$

.............................NOTES.............................
THIS IS AN AUTOMATED COLLECTIVE WITH MINIMAL QUALITY CONTROL.
PIMA CO DEQ SITES HAVE NONSTANDARD WIND SENSOR HEIGHTS.
PIMA CO DEQ SITES DO NOT REPORT WIND GUSTS.
* INDICATES WIND SENSORS LOCATED AT 20 FEET INSTEAD OF 33 FEET.
..............................KEY..............................
SKY/WX - SKY CONDITION/WEATHER
TMP    - TEMPERATURE IN FAHRENHEIT
DP     - DEWPOINT IN FAHRENHEIT
RH     - RELATIVE HUMIDITY IN PERCENT
WIND   - DIRECTION AND SPEED IN MILES PER HOUR (MPH)
VRB    - VARIABLE WIND DIRECTION
PRES   - MEAN SEA LEVEL PRESSURE IN INCHES OF MERCURY
         F - FALLING PRESSURE   R - RISING PRESSURE
         S - STEADY PRESSURE
VSB    - VISIBILITY IN MILES
HX     - HEAT INDEX IN FAHRENHEIT
WCI    - WIND CHILL INDEX IN FAHRENHEIT
N/A    - NOT AVAILABLE
AFB    - AIR FORCE BASE
         DAVIS-MONTHAN IS DAVIS-MONTHAN AIR FORCE BASE
CYN    - CANYON
MTNS   - MOUNTAINS
NCA    - NATIONAL CONSERVATION AREA
NR     - NEAR
VLY    - VALLEY
CONTL  - CONTINENTAL
PIMA CO DEQ - PIMA COUNTY DEPT OF ENVIRONMENTAL QUALITY



USA.gov is the U.S. government's official web portal to all federal, state and local government web resources and services.